sat.trackr.live / text

‹ back to catalog

STARLINK-36087

NORAD 66854 · 2025-281G

PAYLOAD ACTIVE UNKNOWN

§ Identity

Operator
Country
US
Launch date
2025-12-02
Launch site
AFETR
Launch vehicle
Mass (kg)
RCS (m²)

Purposes: comms

External: N2YO · Heavens-Above · Gunter

§ Orbital elements

Epoch: 2026-05-24T16:53:03.239808Z

Period
94.27 min
Inclination
42.9992°
Eccentricity
0.0001050
Mean motion
15.27568525 rev/d
Perigee alt
482.4 km
Apogee alt
483.8 km
Semi-major
6,861.2 km
B*
9.2405e-4
RAAN
273.9499°
Arg perigee
275.4961°
Mean anomaly
84.5771°
Rev number
2,781

§ Raw data

STARLINK-360871 66854U 25281G   26144.70350972  .00025244  00000+0  92405-3 0  99962 66854  42.9992 273.9499 0001050 275.4961  84.5771 15.27568525 27815

JSON: /api/v1/satellites/66854 · /tle

For live sub-satellite position, see the globe view (requires WebGL).

§ Visibility from observer

Set your observer location to see the next 7 days of passes ≥ 10°. The values pass through the URL so the page stays shareable.

No JS? Fill the form by hand. The geolocation button needs JavaScript.